Location: Strada George Coșbuc
(47.6577°N, 23.5639°E)
Time: 15:19:09
(UTC+02:00)

ISS - Pass Details

Date: 05 October 2017
Orbit: 402 x 407 km, 51.6° (Epoch: 23 November)

Event Time Altitude Azimuth Distance (km) Brightness Sun altitude
Rises 21:24:44 0° 291° (WNW) 2,338 1.4 -25.3°
Reaches altitude 10° 21:26:51 10° 296° (WNW) 1,477 0.0 -25.6°
Enters shadow 21:28:33 27° 309° (NW) 835 -1.6 -25.9°
